User: anonymous   Login
Location: Fremont
(37.5480°N, 121.9880°W)
Time: 03:19:40
(UTC-07:00)
Language:

Cosmos 1766 - Orbit

View from above orbital plane
View from above orbital plane
View from above satellite
View from above satellite

Ground track
Ground track

The orbit data is extracted from the following two-line orbital elements,

1 16881U 86055A   16235.81850677  .00000427  00000-0  24567-4 0  9998
2 16881  82.5156 315.4516 0016384  53.1672 307.1057 15.09689672636410
Epoch (UTC): 22 August 2016 19:38:38
Eccentricity: 0.0016384
inclination: 82.5156°
perigee height: 526 km
apogee height: 548 km
right ascension of ascending node: 315.4516°
argument of perigee: 53.1672°
revolutions per day: 15.09689672
mean anomaly at epoch: 307.1057°
orbit number at epoch: 63641

The dashed part of the orbit path shows where the satellite is in the earth's shadow,  

DLR